sat.trackr.live / text

‹ back to catalog

ZHUQUE-2E R/B

NORAD 69537 · 2026-128C

ROCKET_BODY UNKNOWN UNKNOWN

§ Identity

Operator
Country
PRC
Launch date
2026-06-09
Launch site
JSC
Launch vehicle
Mass (kg)
RCS (m²)

External: N2YO · Heavens-Above · Gunter

§ Orbital elements

Epoch: 2026-07-08T22:15:27.124128Z

Period
92.01 min
Inclination
54.5271°
Eccentricity
0.0066416
Mean motion
15.64969702 rev/d
Perigee alt
328.5 km
Apogee alt
418.2 km
Semi-major
6,751.5 km
B*
4.2222e-4
RAAN
201.0602°
Arg perigee
44.0872°
Mean anomaly
316.5430°
Rev number
462

§ Raw data

ZHUQUE-2E R/B1 69537U 26128C   26189.92739727  .00047045  00000+0  42222-3 0  99952 69537  54.5271 201.0602 0066416  44.0872 316.5430 15.64969702  4628

JSON: /api/v1/satellites/69537 · /tle

For live sub-satellite position, see the globe view (requires WebGL).

§ Visibility from observer

Set your observer location to see the next 7 days of passes ≥ 10°. The values pass through the URL so the page stays shareable.

No JS? Fill the form by hand. The geolocation button needs JavaScript.